Weather in Vyarvel'

Russia / Republic of Mordovia     54°00′52″N   44°08′24″E
temp.,
°C
wind,
m/s
gust,
m/s
humid.,
%
clouds,
%
prec.,
mm/h
press.,
hPa
HPBL,
m
3 march, wed
wed300:00−4wnw369678 0.0 1005130
03:00−5nw499781 0.2 1006270
06:00−3nnw51096100 0.5 1007638
09:00−5nw61091100 0.6 1009699
12:00−5nw71090100 0.1 1010684
15:00−4nw61087100 0.1 1011822
18:00−5wnw51186100 0.1 1011552
21:00−7w4109698 0.2 1012283
4 march, thu
thu400:00−6wsw6129597 0.1 1010325
03:00−3wsw7139398 0.1 1008647
06:00−3wsw71393100 0.2 1005784
09:00−2wsw91690100 0.3 1002730
12:000wsw101694100 0.6 1000929
15:000w91490100 0.8 10011038
18:000wsw71293100 0.1 1001654
21:00−1w3798100 1.5 1002364
5 march, fri
fri500:00−3ne1298100 1.9 100051
03:00−3ene1398100 3.9 999160
06:00−4n4797100 1.6 1000305
09:00−4n4794100 2.3 1002463
12:00−3n348999 0.1 1005605
15:00−3nw3486100 0.3 1008672
18:00−8wnw229149 0.1 101021
21:00−8sw339672 0.1 101251
6 march, sat
sat600:00−10sw349668 0.1 101271
03:00−10wsw369684 0.1 1013131
06:00−12w3597100 0.0 101389
09:00−12wnw369699 0.0 1013224
12:00−8wnw469173 0.0 1013431
15:00−7wnw468884 0.1 1014752
18:00−10wnw379499 0.2 1014142
21:00−14nw349598 0.3 101663
7 march, sun
sun700:00−18w239619 0.0 101620
03:00−18wsw339611 0.0 101625
06:00−18sw46950 0.0 101487
09:00−12sw7138617 0.0 1012446
12:00−8sw91582100 0.0 1008793
15:00−6sw111887100 0.2 10031356
18:00−5sw101793100 1.1 9991163
21:00−4sw91694100 2.3 996996